Date String (YYYY-MM-DD hh:mm:ss) UTC,Instrument flags,Ambient pressure (hPa),Sample flow (lpm),Bypass flow (lpm),Sample temperature (°C),Ambient temperature (°C),ASC tube jacket temperature (°C),LED temperature (°C),Box temperature (°C),Sample RH (%),Span deviation,Mass concentration (μg/m³),Mass concentration (μg/m³),Mass concentration (μg/m³)
DateTimeUTC,F1_M11,P_M11,Q1_M11,Q2_M11,T1_M11,T2_M11,T3_M11,T4_M11,T5_M11,U1_M11,ZSPAN_M11,X0_M11,X2_M11,X1_M11
2023-04-24 20:00:00,,0823.5,5.00,0.00,25.3,24.0,00.0,33.6,26.9,12.1,0000.7,0011.71,0006.10,0005.40
2023-04-24 20:01:00,,0823.5,5.00,0.00,25.3,24.0,00.0,33.6,26.9,12.0,0001.3,0011.12,0006.04,0005.35
2023-04-24 20:02:00,,0823.6,5.00,0.00,25.3,24.1,00.0,33.6,26.9,12.3,0001.1,0010.90,0006.03,0005.33
2023-04-24 20:03:00,,0823.5,5.00,0.00,25.3,24.1,00.0,33.6,27.0,12.1,0001.7,0010.92,0006.09,0005.32
2023-04-24 20:04:00,,0823.5,5.00,0.00,25.4,24.2,00.0,33.6,27.0,12.1,0001.8,0010.91,0006.09,0005.30
2023-04-24 20:05:00,,0823.4,5.00,0.00,25.4,24.2,00.0,33.6,27.0,11.8,0001.8,0010.84,0006.09,0005.28
2023-04-24 20:06:00,,0823.5,5.00,0.00,25.4,24.2,00.0,33.6,27.0,12.0,0001.6,0010.72,0006.08,0005.26
2023-04-24 20:07:00,,0823.5,5.00,0.00,25.4,24.3,00.0,33.7,27.1,12.0,0002.1,0010.64,0006.06,0005.26
2023-04-24 20:08:00,,0823.5,5.00,0.00,25.4,24.3,00.0,33.7,27.1,12.0,0002.1,0010.51,0006.01,0005.25
2023-04-24 20:09:00,,0823.5,5.00,0.00,25.5,24.3,00.0,33.7,27.1,11.8,0000.9,0010.50,0006.02,0005.25
2023-04-24 20:10:00,,0823.5,4.99,0.00,25.5,24.4,00.0,33.7,27.1,11.6,0000.6,0010.18,0005.97,0005.24
2023-04-24 20:11:00,,0823.4,5.00,0.00,25.5,24.4,00.0,33.7,27.2,11.7,0000.0,0009.81,0005.94,0005.25
2023-04-24 20:12:00,,0823.5,4.99,0.00,25.5,24.4,00.0,33.7,27.2,11.7,-000.7,0009.87,0005.98,0005.26
2023-04-24 20:13:00,,0823.5,5.00,0.00,25.5,24.4,00.0,33.7,27.2,11.8,-000.8,0009.66,0005.96,0005.25
2023-04-24 20:14:00,,0823.4,5.00,0.00,25.5,24.4,00.0,33.8,27.2,12.2,-000.7,0009.58,0005.90,0005.23
2023-04-24 20:15:00,,0823.5,5.00,0.00,25.5,24.4,00.0,33.8,27.2,12.1,-000.7,0009.91,0005.88,0005.21
2023-04-24 20:16:00,,0823.5,5.01,0.00,25.6,24.4,00.0,33.8,27.2,12.2,-000.7,0010.48,0005.86,0005.21
2023-04-24 20:17:00,,0823.4,4.99,0.00,25.6,24.4,00.0,33.8,27.2,11.9,0000.2,0010.56,0005.87,0005.21
2023-04-24 20:18:00,,0823.4,5.00,0.00,25.6,24.4,00.0,33.8,27.3,11.9,0000.7,0010.87,0005.89,0005.20
2023-04-24 20:19:00,,0823.5,5.01,0.00,25.6,24.4,00.0,33.9,27.3,12.0,0001.2,0011.20,0005.91,0005.19
2023-04-24 20:20:00,,0823.4,5.00,0.00,25.6,24.5,00.0,33.9,27.3,12.2,0002.9,0011.17,0005.88,0005.19
2023-04-24 20:21:00,,0823.4,5.01,0.00,25.6,24.5,00.0,33.9,27.3,11.9,0003.3,0011.41,0005.86,0005.17
2023-04-24 20:22:00,,0823.4,4.98,0.00,25.7,24.4,00.0,33.9,27.3,11.7,0003.4,0011.45,0005.83,0005.15
2023-04-24 20:23:00,,0823.4,5.00,0.00,25.7,24.4,00.0,33.9,27.3,11.8,0003.7,0011.20,0005.76,0005.13
2023-04-24 20:24:00,,0823.4,5.01,0.00,25.7,24.4,00.0,33.9,27.3,11.7,0003.7,0011.32,0005.77,0005.14
2023-04-24 20:25:00,,0823.4,5.00,0.00,25.7,24.3,00.0,33.9,27.3,11.6,0002.7,0011.35,0005.81,0005.15
2023-04-24 20:26:00,,0823.4,4.99,0.00,25.6,24.3,00.0,34.0,27.3,11.6,0001.1,0011.23,0005.85,0005.14
2023-04-24 20:27:00,,0823.4,4.99,0.00,25.7,24.3,00.0,34.0,27.3,11.8,0000.2,0010.74,0005.84,0005.13
2023-04-24 20:28:00,,0823.4,4.99,0.00,25.7,24.4,00.0,34.0,27.3,11.9,-000.4,0010.82,0005.82,0005.12
2023-04-24 20:29:00,,0823.4,5.00,0.00,25.7,24.4,00.0,34.0,27.3,11.8,-001.0,0010.79,0005.78,0005.12
2023-04-24 20:30:00,,0823.4,5.00,0.00,25.7,24.4,00.0,34.0,27.3,11.8,-002.0,0011.18,0005.78,0005.12
2023-04-24 20:31:00,,0823.4,5.01,0.00,25.7,24.4,00.0,34.0,27.3,11.5,-002.6,0011.16,0005.79,0005.11
2023-04-24 20:32:00,,0823.4,5.01,0.00,25.7,24.4,00.0,34.0,27.3,11.6,-003.1,0010.95,0005.80,0005.12
2023-04-24 20:33:00,,0823.4,5.00,0.00,25.7,24.4,00.0,34.0,27.3,11.4,-003.1,0011.17,0005.82,0005.12
2023-04-24 20:34:00,,0823.4,4.99,0.00,25.7,24.4,00.0,34.0,27.3,11.5,-003.4,0011.70,0005.85,0005.13
2023-04-24 20:35:00,,0823.4,5.00,0.00,25.7,24.4,00.0,34.0,27.4,11.7,-003.7,0011.91,0005.87,0005.12
2023-04-24 20:36:00,,0823.4,5.00,0.00,25.8,24.5,00.0,34.0,27.4,11.3,-002.8,0011.97,0005.84,0005.10
2023-04-24 20:37:00,,0823.4,5.00,0.00,25.8,24.5,00.0,34.1,27.4,11.3,-001.7,0011.99,0005.79,0005.09
2023-04-24 20:38:00,,0823.4,5.00,0.00,25.8,24.5,00.0,34.1,27.4,11.2,-001.2,0011.79,0005.79,0005.09
2023-04-24 20:39:00,,0823.4,5.00,0.00,25.8,24.5,00.0,34.1,27.4,11.3,-000.3,0011.83,0005.80,0005.10
2023-04-24 20:40:00,,0823.3,5.00,0.00,25.8,24.5,00.0,34.1,27.4,11.2,-000.6,0011.71,0005.80,0005.10
2023-04-24 20:41:00,,0823.3,5.00,0.00,25.8,24.6,00.0,34.1,27.4,11.3,-000.9,0011.02,0005.81,0005.11
2023-04-24 20:42:00,,0823.3,5.00,0.00,25.8,24.6,00.0,34.1,27.5,11.3,-000.4,0010.83,0005.78,0005.09
2023-04-24 20:43:00,,0823.3,5.00,0.00,25.9,24.7,00.0,34.1,27.5,11.3,-000.7,0010.90,0005.78,0005.08
2023-04-24 20:44:00,,0823.3,5.00,0.00,25.9,24.7,00.0,34.1,27.5,11.4,-000.6,0010.58,0005.79,0005.07
2023-04-24 20:45:00,,0823.3,5.00,0.00,25.9,24.7,00.0,34.1,27.5,11.4,0000.0,0010.20,0005.82,0005.06
2023-04-24 20:46:00,,0823.3,5.00,0.00,25.9,24.7,00.0,34.2,27.5,11.3,0000.1,0009.81,0005.79,0005.06
2023-04-24 20:47:00,,0823.3,5.00,0.00,25.9,24.7,00.0,34.2,27.6,11.2,0000.0,0010.78,0005.81,0005.07
2023-04-24 20:48:00,,0823.3,4.99,0.00,25.9,24.7,00.0,34.2,27.6,11.5,0000.5,0010.71,0005.79,0005.05
2023-04-24 20:49:00,,0823.3,5.00,0.00,25.9,24.7,00.0,34.2,27.6,11.5,0000.7,0010.75,0005.79,0005.03
2023-04-24 20:50:00,,0823.3,5.00,0.00,25.9,24.7,00.0,34.2,27.6,11.6,-000.1,0010.78,0005.77,0005.01
2023-04-24 20:51:00,,0823.3,5.00,0.00,26.0,24.7,00.0,34.2,27.6,11.3,-000.1,0011.31,0005.76,0004.98
2023-04-24 20:52:00,,0823.3,5.00,0.00,26.0,24.7,00.0,34.3,27.6,11.1,0001.0,0011.40,0005.77,0004.95
2023-04-24 20:53:00,,0823.2,5.01,0.00,26.0,24.7,00.0,34.3,27.6,11.3,0001.5,0011.35,0005.74,0004.93
2023-04-24 20:54:00,,0823.2,5.00,0.00,26.0,24.7,00.0,34.3,27.6,11.5,0002.1,0011.24,0005.70,0004.90
2023-04-24 20:55:00,,0823.2,5.00,0.00,26.0,24.7,00.0,34.3,27.6,11.4,0002.6,0011.69,0005.68,0004.88
2023-04-24 20:56:00,,0823.1,5.00,0.00,26.0,24.7,00.0,34.3,27.6,11.4,0003.0,0011.69,0005.64,0004.88
2023-04-24 20:57:00,,0823.2,5.00,0.00,26.0,24.7,00.0,34.3,27.6,10.9,0003.7,0011.82,0005.64,0004.87
2023-04-24 20:58:00,,0823.2,5.00,0.00,26.0,24.7,00.0,34.3,27.6,10.9,0003.3,0010.69,0005.60,0004.86
2023-04-24 20:59:00,,0823.1,5.00,0.00,26.0,24.7,00.0,34.3,27.6,11.0,0002.7,0010.62,0005.61,0004.87
